TIME,DELAY(SENSOR),PRES,OXYGEN,RAWTEMP,T(OPTODE),TCPHASE,FLUOR,BETA(BETA700),BETA(BETA412),BETA(BETA440),CDOM,C(CSC),ED(ED411.90),ED(ED443.80),ED(ED489.40),ED(ED554.70),LU(LU412.20),LU(LU443.80),LU(LU489.40),LU(LU555.00),COMP,TILTX,TILTY,CHECK
1368052316,5804,901.6300048828125000,156.1493988037109400,480.4916992187500000,8.1334829330444340,40.6025695800781250,53,134,105,84,80,10822,2146962240,2147522285,2147289024,2147503744,2147084608,2146923913,2147712338,2147121124,2325,-1,8,46778
1368055912,5807,1000.9000244140625000,223.5643005371093800,536.6146240234375000,6.3888912200927730,37.1727714538574200,52,103,97,80,80,10853,2146966427,2147522916,2147298340,2147516379,2147088036,2146919177,2147725385,2147122413,612,-1,8,25135
1368059512,5807,1013.7100219726562000,229.9497070312500000,544.6857299804688000,6.1361370086669920,36.9714088439941400,52,107,98,80,80,10848,2146964160,2147520585,2147296786,2147516800,2147089472,2146918281,2147726125,2147123236,3197,-1,8,53849
1368063112,5804,1016.7199707031250000,232.3706054687500000,546.0294799804688000,6.0940070152282715,36.8668899536132800,52,109,97,81,80,10846,2146963017,2147517933,2147298797,2147521280,2147085878,2146923666,2147730386,2147120082,3545,0,8,48857
1368066712,5804,1021.6400146484375000,229.7534027099609400,547.5610961914062000,6.0459728240966800,37.0337409973144500,52,104,99,80,80,10843,2146964342,2147519104,2147298130,2147517339,2147085769,2146920438,2147727817,2147120146,3491,-1,8,50364
1368070312,5806,1024.6700439453125000,239.0684967041015600,548.3474121093750000,6.0213031768798830,36.5594902038574200,52,105,98,80,81,10845,2146964754,2147520329,2147299053,2147519268,2147086180,2146916160,2147732370,2147119634,435,-1,8,61509
1368073912,5807,1024.6800537109375000,238.1528015136718800,548.4113769531250000,6.0192952156066895,36.6071815490722660,53,107,99,80,80,10843,2146963904,2147522898,2147299163,2147522724,2147087707,2146920548,2147730944,2147121481,257,-1,8,52229
1368077512,5809,1030.8100585937500000,239.5921936035156200,547.4993286132812000,6.0479130744934080,36.5165596008300800,52,108,97,80,80,10840,2146962752,2147522304,2147299108,2147520694,2147083995,2146917659,2147728402,2147121078,27,-1,8,38665
1368081112,5807,1030.8199462890625000,239.1452941894531200,547.5443115234375000,6.0464987754821780,36.5404510498046900,52,108,98,80,80,10842,2146966326,2147521024,2147298002,2147520283,2147084233,2146921371,2147728804,2147117284,547,-1,8,8950
1368084712,5806,1028.8399658203125000,230.5223999023437500,549.0471801757812000,5.9993438720703125,37.0198593139648440,52,104,98,80,80,10845,2146964681,2147519716,2147299154,2147517851,2147084489,2146922861,2147732178,2147118592,3422,-1,8,30422
1368088312,5807,1029.8299560546875000,239.1761932373047000,548.9774169921875000,6.0015368461608890,36.5652503967285160,52,109,99,79,79,10839,2146966006,2147519369,2147300772,2147521828,2147084754,2146923456,2147729792,2147117202,222,-1,8,52553
1368091912,5805,1032.8299560546875000,240.2460021972656200,549.0220947265625000,6.0001339912414550,36.5110511779785160,52,111,99,83,79,10791,2146965302,2147517869,2147297289,2147521773,2147085138,2146921764,2147728073,2147121051,3532,-1,8,36891
1368095512,5808,1037.5600585937500000,239.0335998535156200,548.8903198242188000,6.0042691230773930,36.5705718994140600,52,107,97,79,81,10840,2146966793,2147521353,2147299602,2147517778,2147087451,2146921572,2147726665,2147120283,138,-1,8,9847
1368099112,5806,1037.8299560546875000,236.9759979248047000,548.2031860351562000,6.0258269309997560,36.6648292541503900,52,108,99,80,80,10839,2146965485,2147520155,2147297124,2147519972,2147084342,2146918866,2147722020,2147122450,3272,-1,8,32934
1368102712,5806,1025.5699462890625000,225.0312957763672000,546.0263061523438000,6.0941090583801270,37.2624893188476560,52,109,97,79,80,10837,2146961673,2147520923,2147300123,2147518390,2147084032,2146918518,2147728411,2147119661,303,-1,8,26910
1368106312,5806,1027.4100341796875000,236.0726013183593800,545.1296997070312000,6.1222190856933590,36.6562385559082000,53,108,99,137,80,10806,2146966765,2147518070,2147300196,2147519515,2147087725,2146928987,2147727881,2147119698,2640,-1,8,59391
1368109912,5805,1026.8299560546875000,230.9705963134765600,546.1043701171875000,6.0916581153869630,36.9423599243164060,51,113,99,81,81,10805,2146968164,2147521106,2147300288,2147519954,2147086299,2146924571,2147727917,2147123858,3488,-1,8,43357
1368113512,5805,1026.9599609375000000,238.9618988037109400,545.8070068359375000,6.1009850502014160,36.5186500549316400,53,108,97,79,81,10799,2146966153,2147520896,2147299190,2147517540,2147087561,2146920941,2147726747,2147123008,3101,0,8,59504
1368117112,5808,1027.6400146484375000,234.4481964111328000,546.2233276367188000,6.0879311561584470,36.7607002258300800,52,109,98,80,80,10794,2146964470,2147520621,2147297398,2147517147,2147084882,2146919305,2147726317,2147122660,119,-1,8,33627
1368120712,5808,1027.6700439453125000,235.7572021484375000,546.2073974609375000,6.0884299278259280,36.6921997070312500,52,120,98,81,80,10792,2146965568,2147519021,2147300416,2147518006,2147087021,2146924736,2147722752,2147120841,2698,-1,8,1814
1368124312,5805,1027.4699707031250000,238.2955017089843800,546.3233032226562000,6.0847949981689450,36.5621490478515600,52,106,98,80,81,10788,2146966262,2147520146,2147300736,2147517129,2147086226,2146921764,2147729115,2147121060,3514,-1,8,38806
1368127912,5810,1030.4899902343750000,238.7380981445312500,546.3358764648438000,6.0843977928161620,36.5398597717285160,52,108,98,80,80,10794,2146964873,2147519862,2147299291,2147518308,2147088402,2146917403,2147722788,2147121892,2689,-1,8,50027
1368131512,5804,1029.7800292968750000,239.2808990478515600,546.3524169921875000,6.0838828086853030,36.5120811462402340,52,105,99,79,81,10765,2146963072,2147520329,2147300169,2147520932,2147088137,2146922989,2147727250,2147122587,3150,-1,8,38896
1368135112,5806,1029.0300292968750000,237.6369934082031200,546.3305053710938000,6.0845680236816410,36.5970191955566400,52,106,99,80,80,10779,2146965878,2147523949,2147299584,2147520301,2147082304,2146922642,2147727670,2147122752,3278,0,8,16552
1368138712,5803,1025.7800292968750000,238.0216979980468800,546.8225708007812000,6.0691361427307130,36.5855712890625000,52,105,97,80,80,10780,2146964114,2147517394,2147300251,2147518665,2147085568,2146924763,2147728027,2147123044,3535,0,8,8833
1368142312,5805,1023.6400146484375000,237.7265014648437500,547.8095703125000000,6.0381760597229000,36.6184082031250000,52,108,97,80,80,10781,2146965449,2147520448,2147299721,2147516013,2147086418,2146921600,2147733476,2147124653,3308,-1,8,31877
1368145912,5809,1021.5399780273438000,233.0924987792968800,548.6176757812500000,6.0128231048583980,36.8759689331054700,53,107,97,80,81,10782,2146963913,2147518363,2147296704,2147518628,2147088621,2146923849,2147728082,2147123373,565,0,8,19250
1368149512,5808,1023.1699829101562000,238.0847015380859400,548.4578857421875000,6.0178360939025880,36.6117210388183600,52,107,98,80,79,10780,2146965449,2147520905,2147299273,2147521654,2147085010,2146918006,2147731190,2147118893,203,0,8,43638
1368153112,5808,1028.9200439453125000,239.3359069824218800,546.8751220703125000,6.0674901008605960,36.5184211730957000,53,106,99,80,79,10777,2146964918,2147519945,2147302336,2147518070,2147085677,2146923200,2147730578,2147121590,2702,-1,8,9181
1368156712,5805,1034.0400390625000000,231.5104980468750000,546.4697265625000000,6.0802059173583980,36.9201698303222660,52,107,98,81,80,10766,2146963017,2147518729,2147299556,2147517869,2147084224,2146927451,2147727387,2147121033,3159,-1,8,10518
1368160312,5805,1035.7199707031250000,238.5677032470703000,546.1201782226562000,6.0911622047424320,36.5448303222656250,52,110,98,79,81,10741,2146965028,2147519780,2147298998,2147519579,2147086345,2146922724,2147724644,2147119680,1270,-1,8,10110
1368163912,5805,1036.4200439453125000,235.4158935546875000,543.9155883789062000,6.1602759361267090,36.6685218811035160,52,105,98,80,80,10731,2146962075,2147522075,2147299611,2147517906,2147087798,2146919542,2147722139,2147125238,3324,-1,8,58631
1368167512,5806,1016.0499877929688000,226.9066925048828000,536.4821166992188000,6.3930358886718750,36.9873695373535160,53,106,98,79,81,10737,2146963154,2147519085,2147299008,2147516507,2147086217,2146921627,2147720777,2147124662,3129,-1,8,33200
1368171112,5805,1010.5900268554688000,229.8175964355468800,536.6137695312500000,6.3889141082763670,36.8325500488281250,52,106,98,80,80,10736,2146964178,2147523072,2147296886,2147518948,2147086811,2146922797,2147726326,2147120502,3050,-1,8,59294
1368174712,5804,1009.5800170898438000,225.1381988525390600,538.0567016601562000,6.3437647819519040,37.1127281188964840,52,105,98,80,80,10738,2146962614,2147522733,2147297700,2147518107,2147082724,2146922541,2147725568,2147121216,2825,-1,8,18915
1368178312,5806,1008.5499877929688000,231.9579010009765600,538.5612792968750000,6.3279719352722170,36.7538108825683600,52,106,98,80,81,10724,2146963858,2147518509,2147296749,2147515840,2147085714,2146923812,2147728027,2147125577,693,-1,8,4109
1368181912,5808,1009.8900146484375000,231.9418945312500000,538.7221069335938000,6.3229408264160160,36.7577209472656250,51,104,98,80,80,10720,2146962752,2147520694,2147299227,2147518582,2147088329,2146921490,2147722898,2147122761,635,-1,8,56202
1368185512,5808,1011.5700073242188000,232.5158996582031200,538.5563964843750000,6.3281269073486330,36.7241592407226560,52,106,98,80,80,10720,2146961810,2147519140,2147299474,2147516900,2147086089,2146920603,2147723702,2147121353,894,-1,8,28487
1368189112,5804,1013.3900146484375000,232.2238006591797000,538.8574829101562000,6.3187031745910645,36.7449302673339840,53,106,100,78,81,10717,2146961984,2147518957,2147302153,2147516242,2147086802,2146919460,2147723538,2147123346,1093,-1,8,18280
1368192712,5807,1004.8599853515625000,232.8168029785156200,540.4995117187500000,6.2672958374023440,36.7436294555664060,51,110,97,79,80,10716,2146963318,2147517440,2147298633,2147516342,2147085494,2146922688,2147729673,2147123949,769,-1,8,24058
1368196312,5808,1006.4000244140625000,229.8551025390625000,540.7354736328125000,6.2599048614501950,36.9050407409668000,52,107,97,80,80,10714,2146962496,2147518646,2147297298,2147516854,2147088978,2146921344,2147728850,2147124507,3588,-1,8,4188
1368196556,5804,10.1999998092651370,230.0874938964843800,540.6597900390625000,6.2622761726379395,36.8914299011230500,53,102,97,80,81,10780,2146962377,2147520630,2147298020,2147519003,2147085732,2146921828,2147724928,2147126345,3404,-1,8,65520
